Location: Dammartin
(48.9032°N, 1.6195°E)
Time: 12:48:09
(UTC+00:00)

YUBILEINY - Pass Details

Date: 14 December 2023
Orbit: 1479 x 1508 km, 82.5° (Epoch: 02 March)

Event Time Altitude Azimuth Distance (km) Brightness Sun altitude
Rises 17:52:32 0° 351° (N) 4,626 ? -18.0°
Reaches altitude 10° 17:55:48 10° 360° (N) 3,639 ? -18.5°
Maximum altitude 18:03:44 37° 65° (ENE) 2,159 ? -19.8°
Drops below altitude 10° 18:11:36 10° 131° (SE) 3,613 ? -21.0°
Sets 18:14:47 0° 139° (SE) 4,589 ? -21.5°
